| time (UTC) | temp F | wind direction | speed MPH | gust MPH | rain 1hr in | rain 24hr in | rain mn in | humidity % | barometer mb |
| 20260902040132 | 73 | 219 | 0.0 | 3.0 | 0.00 | 0.00 | 0.00 | 68 | 1015.8 |
| 20260902035630 | 73 | 298 | 1.0 | 2.0 | 0.00 | 0.00 | 0.00 | 66 | 1015.7 |
| 20260902035126 | 73 | 271 | 1.0 | 1.0 | 0.00 | 0.00 | 0.00 | 67 | 1016.4 |
| 20260902034625 | 73 | 245 | 0.0 | 0.0 | 0.00 | 0.00 | 0.00 | 66 | 1016.2 |
| 20260902034119 | 73 | 231 | 0.0 | 0.0 | 0.00 | 0.00 | 0.00 | 66 | 1016.6 |
| 20260902033618 | 74 | 235 | 0.0 | 0.0 | 0.00 | 0.00 | 0.00 | 67 | 1016.6 |
| 20260902033114 | 74 | 257 | 0.0 | 1.0 | 0.00 | 0.00 | 0.00 | 64 | 1016.7 |
| 20260902032612 | 74 | 241 | 0.0 | 0.0 | 0.00 | 0.00 | 0.00 | 65 | 1016.8 |
| 20260902032107 | 74 | 232 | 0.0 | 0.0 | 0.00 | 0.00 | 0.00 | 66 | 1016.8 |
| 20260902031601 | 74 | 342 | 0.0 | 2.0 | 0.00 | 0.00 | 0.00 | 65 | 1016.9 |
| 20260902031057 | 74 | 266 | 0.0 | 1.0 | 0.00 | 0.00 | 0.00 | 67 | 1016.7 |
| 20260902030552 | 74 | 250 | 0.0 | 0.0 | 0.00 | 0.00 | 0.00 | 67 | 1016.8 |
| 20260902030052 | 74 | 279 | 1.0 | 1.0 | 0.00 | 0.00 | 0.00 | 66 | 1016.5 |
| 20260902025552 | 74 | 244 | 0.0 | 0.0 | 0.00 | 0.00 | 0.00 | 66 | 1016.6 |
| 20260902025047 | 75 | 244 | 0.0 | 0.0 | 0.00 | 0.00 | 0.00 | 65 | 1016.5 |
| 20260902024543 | 75 | 245 | 0.0 | 0.0 | 0.00 | 0.00 | 0.00 | 65 | 1016.6 |
| 20260902024043 | 75 | 252 | 0.0 | 0.0 | 0.00 | 0.00 | 0.00 | 65 | 1016.3 |
| 20260902023538 | 75 | 201 | 0.0 | 0.0 | 0.00 | 0.00 | 0.00 | 66 | 1016.4 |
| 20260902023033 | 75 | 282 | 0.0 | 0.0 | 0.00 | 0.00 | 0.00 | 64 | 1016.5 |
| 20260902022527 | 75 | 211 | 0.0 | 0.0 | 0.00 | 0.00 | 0.00 | 65 | 1016.4 |
| 20260902022023 | 75 | 211 | 0.0 | 0.0 | 0.00 | 0.00 | 0.00 | 64 | 1016.5 |
| 20260902021519 | 75 | 211 | 0.0 | 0.0 | 0.00 | 0.00 | 0.00 | 63 | 1016.5 |
| 20260902021014 | 75 | 209 | 0.0 | 0.0 | 0.00 | 0.00 | 0.00 | 64 | 1016.5 |
| 20260902020509 | 75 | 221 | 0.0 | 0.0 | 0.00 | 0.00 | 0.00 | 65 | 1016.5 |
| 20260902020005 | 76 | 228 | 0.0 | 0.0 | 0.00 | 0.00 | 0.00 | 64 | 1016.6 |
| 20260902015501 | 76 | 244 | 0.0 | 0.0 | 0.00 | 0.00 | 0.00 | 65 | 1016.5 |
| 20260902014956 | 76 | 221 | 0.0 | 0.0 | 0.00 | 0.00 | 0.00 | 65 | 1016.2 |
| 20260902014452 | 76 | 196 | 0.0 | 0.0 | 0.00 | 0.00 | 0.00 | 64 | 1016.3 |
| 20260902013952 | 77 | 195 | 0.0 | 0.0 | 0.00 | 0.00 | 0.00 | 63 | 1016.2 |
| 20260902013447 | 77 | 211 | 0.0 | 0.0 | 0.00 | 0.00 | 0.00 | 63 | 1016.2 |
| 20260902012942 | 77 | 210 | 0.0 | 0.0 | 0.00 | 0.00 | 0.00 | 63 | 1016.1 |
| 20260902012438 | 78 | 216 | 0.0 | 0.0 | 0.00 | 0.00 | 0.00 | 63 | 1016.2 |
| 20260902011933 | 78 | 216 | 0.0 | 0.0 | 0.00 | 0.00 | 0.00 | 62 | 1016.1 |
| 20260902011428 | 78 | 191 | 0.0 | 0.0 | 0.00 | 0.00 | 0.00 | 62 | 1016.2 |
| 20260902010928 | 78 | 216 | 0.0 | 0.0 | 0.00 | 0.00 | 0.00 | 62 | 1015.9 |
| 20260902010423 | 78 | 208 | 0.0 | 0.0 | 0.00 | 0.00 | 0.00 | 62 | 1015.9 |
| 20260902005922 | 79 | 202 | 0.0 | 0.0 | 0.00 | 0.00 | 0.00 | 61 | 1016.0 |
| 20260902005421 | 79 | 220 | 0.0 | 0.0 | 0.00 | 0.00 | 0.00 | 60 | 1015.9 |
| 20260902004918 | 79 | 220 | 0.0 | 0.0 | 0.00 | 0.00 | 0.00 | 61 | 1016.0 |
| 20260902004417 | 79 | 219 | 0.0 | 0.0 | 0.00 | 0.00 | 0.00 | 63 | 1016.0 |
| 20260902003912 | 79 | 215 | 0.0 | 0.0 | 0.00 | 0.00 | 0.00 | 64 | 1016.0 |
| 20260902003407 | 80 | 217 | 0.0 | 0.0 | 0.00 | 0.00 | 0.00 | 66 | 1016.1 |
| 20260902002903 | 80 | 221 | 0.0 | 0.0 | 0.00 | 0.00 | 0.00 | 66 | 1016.0 |
| 20260902002403 | 80 | 206 | 0.0 | 0.0 | 0.00 | 0.00 | 0.00 | 64 | 1016.1 |
| 20260902001857 | 81 | 213 | 0.0 | 1.0 | 0.00 | 0.00 | 0.00 | 63 | 1016.0 |
| 20260902001352 | 81 | 217 | 0.0 | 0.0 | 0.00 | 0.00 | 0.00 | 63 | 1016.1 |
| 20260902000847 | 81 | 205 | 0.0 | 0.0 | 0.00 | 0.00 | 0.00 | 62 | 1016.1 |
| 20260902000344 | 82 | 233 | 0.0 | 1.0 | 0.00 | 0.00 | 0.00 | 62 | 1016.4 |
| 20260901235837 | 82 | 198 | 0.0 | 1.0 | 0.00 | 0.00 | 0.00 | 61 | 1016.1 |
| 20260901235337 | 82 | 232 | 0.0 | 1.0 | 0.00 | 0.00 | 0.00 | 61 | 1016.2 |
| 20260901234832 | 82 | 186 | 1.0 | 1.0 | 0.00 | 0.00 | 0.00 | 60 | 1016.2 |
| 20260901234326 | 82 | 200 | 0.0 | 1.0 | 0.00 | 0.00 | 0.00 | 60 | 1016.3 |
| 20260901233822 | 82 | 217 | 0.0 | 0.0 | 0.00 | 0.00 | 0.00 | 60 | 1016.0 |
| 20260901233317 | 82 | 201 | 0.0 | 1.0 | 0.00 | 0.00 | 0.00 | 59 | 1016.2 |
| 20260901232813 | 83 | 218 | 2.0 | 3.0 | 0.00 | 0.00 | 0.00 | 58 | 1016.4 |
| 20260901232307 | 83 | 213 | 2.0 | 3.0 | 0.00 | 0.00 | 0.00 | 58 | 1016.3 |
| 20260901231804 | 83 | 246 | 2.0 | 3.0 | 0.00 | 0.00 | 0.00 | 57 | 1016.3 |
| 20260901231300 | 83 | 241 | 3.0 | 5.0 | 0.00 | 0.00 | 0.00 | 57 | 1016.3 |
| 20260901230756 | 83 | 189 | 1.0 | 2.0 | 0.00 | 0.00 | 0.00 | 56 | 1015.9 |
| 20260901230255 | 83 | 240 | 1.0 | 2.0 | 0.00 | 0.00 | 0.00 | 56 | 1016.0 |
| 20260901225750 | 83 | 193 | 2.0 | 2.0 | 0.00 | 0.00 | 0.00 | 55 | 1016.1 |
| 20260901225244 | 84 | 175 | 0.0 | 3.0 | 0.00 | 0.00 | 0.00 | 56 | 1016.2 |
| 20260901224741 | 84 | 242 | 1.0 | 2.0 | 0.00 | 0.00 | 0.00 | 56 | 1016.1 |
| 20260901224236 | 84 | 225 | 2.0 | 3.0 | 0.00 | 0.00 | 0.00 | 55 | 1016.1 |
| 20260901223732 | 84 | 236 | 1.0 | 3.0 | 0.00 | 0.00 | 0.00 | 55 | 1016.1 |
| 20260901223227 | 85 | 204 | 1.0 | 3.0 | 0.00 | 0.00 | 0.00 | 55 | 1016.3 |
| 20260901222723 | 85 | 179 | 1.0 | 2.0 | 0.00 | 0.00 | 0.00 | 54 | 1016.1 |
| 20260901222219 | 85 | 191 | 3.0 | 5.0 | 0.00 | 0.00 | 0.00 | 52 | 1016.1 |
| 20260901221715 | 85 | 271 | 3.0 | 3.0 | 0.00 | 0.00 | 0.00 | 50 | 1016.2 |
| 20260901221211 | 85 | 167 | 3.0 | 3.0 | 0.00 | 0.00 | 0.00 | 49 | 1016.2 |
| 20260901220709 | 85 | 245 | 5.0 | 6.0 | 0.00 | 0.00 | 0.00 | 48 | 1016.0 |
| 20260901220209 | 85 | 213 | 3.0 | 5.0 | 0.00 | 0.00 | 0.00 | 48 | 1016.0 |
| 20260901215708 | 85 | 215 | 1.0 | 3.0 | 0.00 | 0.00 | 0.00 | 49 | 1016.2 |
| 20260901215202 | 86 | 228 | 2.0 | 3.0 | 0.00 | 0.00 | 0.00 | 47 | 1016.0 |
| 20260901214700 | 86 | 200 | 1.0 | 6.0 | 0.00 | 0.00 | 0.00 | 47 | 1015.8 |
| 20260901214154 | 86 | 165 | 4.0 | 7.0 | 0.00 | 0.00 | 0.00 | 44 | 1016.0 |
| 20260901213649 | 86 | 238 | 2.0 | 3.0 | 0.00 | 0.00 | 0.00 | 43 | 1016.0 |
| 20260901213144 | 86 | 196 | 0.0 | 5.0 | 0.00 | 0.00 | 0.00 | 42 | 1015.8 |
| 20260901212643 | 86 | 160 | 3.0 | 7.0 | 0.00 | 0.00 | 0.00 | 43 | 1016.0 |
| 20260901212139 | 86 | 206 | 3.0 | 6.0 | 0.00 | 0.00 | 0.00 | 43 | 1015.6 |
| 20260901211634 | 86 | 172 | 1.0 | 6.0 | 0.00 | 0.00 | 0.00 | 45 | 1015.8 |
| 20260901211131 | 87 | 178 | 1.0 | 3.0 | 0.00 | 0.00 | 0.00 | 45 | 1015.9 |
| 20260901210626 | 87 | 214 | 0.0 | 2.0 | 0.00 | 0.00 | 0.00 | 44 | 1015.7 |
| 20260901210122 | 87 | 197 | 1.0 | 5.0 | 0.00 | 0.00 | 0.00 | 45 | 1015.9 |
| 20260901205617 | 87 | 167 | 1.0 | 3.0 | 0.00 | 0.00 | 0.00 | 46 | 1015.8 |
| 20260901205111 | 87 | 232 | 3.0 | 7.0 | 0.00 | 0.00 | 0.00 | 44 | 1016.1 |
| 20260901204607 | 89 | 215 | 2.0 | 6.0 | 0.00 | 0.00 | 0.00 | 43 | 1016.2 |
| 20260901204102 | 88 | 183 | 0.0 | 5.0 | 0.00 | 0.00 | 0.00 | 44 | 1016.1 |
| 20260901203602 | 88 | 198 | 4.0 | 7.0 | 0.00 | 0.00 | 0.00 | 44 | 1016.2 |
| 20260901203057 | 89 | 227 | 1.0 | 6.0 | 0.00 | 0.00 | 0.00 | 43 | 1016.4 |
| 20260901202556 | 88 | 204 | 3.0 | 7.0 | 0.00 | 0.00 | 0.00 | 43 | 1016.4 |
| 20260901202053 | 88 | 168 | 2.0 | 6.0 | 0.00 | 0.00 | 0.00 | 44 | 1016.2 |
| 20260901201548 | 88 | 222 | 4.0 | 6.0 | 0.00 | 0.00 | 0.00 | 44 | 1016.1 |
| 20260901201047 | 87 | 175 | 0.0 | 2.0 | 0.00 | 0.00 | 0.00 | 46 | 1016.2 |
| 20260901200547 | 87 | 266 | 5.0 | 6.0 | 0.00 | 0.00 | 0.00 | 44 | 1016.4 |
| 20260901200042 | 87 | 131 | 1.0 | 5.0 | 0.00 | 0.00 | 0.00 | 45 | 1016.3 |
| 20260901195539 | 87 | 164 | 0.0 | 3.0 | 0.00 | 0.00 | 0.00 | 47 | 1016.5 |
| 20260901195034 | 87 | 169 | 2.0 | 3.0 | 0.00 | 0.00 | 0.00 | 46 | 1016.4 |
| 20260901194529 | 87 | 197 | 1.0 | 3.0 | 0.00 | 0.00 | 0.00 | 44 | 1016.2 |
| 20260901194025 | 88 | 198 | 0.0 | 2.0 | 0.00 | 0.00 | 0.00 | 45 | 1016.5 |
| 20260901193524 | 88 | 118 | 2.0 | 2.0 | 0.00 | 0.00 | 0.00 | 44 | 1016.3 |
| 20260901193020 | 87 | 223 | 1.0 | 2.0 | 0.00 | 0.00 | 0.00 | 46 | 1016.4 |
| 20260901192514 | 87 | 235 | 3.0 | 3.0 | 0.00 | 0.00 | 0.00 | 46 | 1016.7 |
| 20260901192011 | 87 | 205 | 0.0 | 6.0 | 0.00 | 0.00 | 0.00 | 47 | 1016.7 |
| 20260901191506 | 87 | 133 | 2.0 | 3.0 | 0.00 | 0.00 | 0.00 | 46 | 1016.7 |
| 20260901191002 | 87 | 195 | 2.0 | 5.0 | 0.00 | 0.00 | 0.00 | 45 | 1016.7 |
| 20260901190457 | 87 | 165 | 0.0 | 2.0 | 0.00 | 0.00 | 0.00 | 47 | 1016.5 |
| 20260901185955 | 88 | 138 | 1.0 | 6.0 | 0.00 | 0.00 | 0.00 | 46 | 1016.5 |
| 20260901185449 | 89 | 226 | 1.0 | 6.0 | 0.00 | 0.00 | 0.00 | 45 | 1016.4 |
| 20260901184949 | 89 | 173 | 1.0 | 2.0 | 0.00 | 0.00 | 0.00 | 46 | 1016.6 |
| 20260901184444 | 89 | 186 | 1.0 | 5.0 | 0.00 | 0.00 | 0.00 | 46 | 1016.5 |
| 20260901183939 | 88 | 194 | 4.0 | 6.0 | 0.00 | 0.00 | 0.00 | 47 | 1016.8 |
| 20260901183439 | 87 | 311 | 1.0 | 3.0 | 0.00 | 0.00 | 0.00 | 48 | 1016.8 |
| 20260901182935 | 87 | 177 | 4.0 | 5.0 | 0.00 | 0.00 | 0.00 | 46 | 1017.0 |
| 20260901182431 | 86 | 265 | 0.0 | 3.0 | 0.00 | 0.00 | 0.00 | 49 | 1016.8 |
| 20260901181925 | 86 | 138 | 0.0 | 1.0 | 0.00 | 0.00 | 0.00 | 50 | 1017.0 |
| 20260901181420 | 86 | 235 | 4.0 | 8.0 | 0.00 | 0.00 | 0.00 | 49 | 1017.0 |
| 20260901180919 | 86 | 248 | 2.0 | 5.0 | 0.00 | 0.00 | 0.00 | 51 | 1017.2 |
| 20260901180418 | 87 | 121 | 1.0 | 5.0 | 0.00 | 0.00 | 0.00 | 50 | 1017.2 |
| 20260901175917 | 86 | 181 | 3.0 | 3.0 | 0.00 | 0.00 | 0.00 | 50 | 1017.3 |
| 20260901175412 | 85 | 174 | 1.0 | 2.0 | 0.00 | 0.00 | 0.00 | 52 | 1017.5 |
| 20260901174907 | 86 | 163 | 1.0 | 1.0 | 0.00 | 0.00 | 0.00 | 52 | 1017.3 |
| 20260901174403 | 86 | 140 | 1.0 | 5.0 | 0.00 | 0.00 | 0.00 | 51 | 1017.5 |
| 20260901173858 | 86 | 173 | 1.0 | 2.0 | 0.00 | 0.00 | 0.00 | 52 | 1017.6 |
| 20260901173353 | 86 | 124 | 0.0 | 2.0 | 0.00 | 0.00 | 0.00 | 53 | 1017.4 |
| 20260901172849 | 86 | 165 | 2.0 | 5.0 | 0.00 | 0.00 | 0.00 | 52 | 1017.5 |
| 20260901172349 | 85 | 134 | 1.0 | 5.0 | 0.00 | 0.00 | 0.00 | 53 | 1017.6 |
| 20260901171847 | 86 | 160 | 3.0 | 6.0 | 0.00 | 0.00 | 0.00 | 52 | 1017.8 |
| 20260901171346 | 85 | 230 | 1.0 | 3.0 | 0.00 | 0.00 | 0.00 | 52 | 1017.5 |
| 20260901170845 | 85 | 211 | 3.0 | 3.0 | 0.00 | 0.00 | 0.00 | 52 | 1017.6 |
| 20260901170340 | 85 | 195 | 3.0 | 6.0 | 0.00 | 0.00 | 0.00 | 54 | 1017.7 |
| 20260901165834 | 85 | 196 | 4.0 | 5.0 | 0.00 | 0.00 | 0.00 | 55 | 1017.6 |
| 20260901165328 | 85 | 237 | 2.0 | 3.0 | 0.00 | 0.00 | 0.00 | 55 | 1017.7 |
| 20260901164825 | 85 | 226 | 2.0 | 3.0 | 0.00 | 0.00 | 0.00 | 56 | 1017.6 |
| 20260901164320 | 85 | 121 | 0.0 | 2.0 | 0.00 | 0.00 | 0.00 | 57 | 1017.5 |
| 20260901163814 | 84 | 208 | 1.0 | 2.0 | 0.00 | 0.00 | 0.00 | 56 | 1017.6 |
| 20260901163309 | 84 | 112 | 1.0 | 2.0 | 0.00 | 0.00 | 0.00 | 58 | 1017.9 |
| 20260901162803 | 84 | 175 | 1.0 | 2.0 | 0.00 | 0.00 | 0.00 | 58 | 1017.7 |
| 20260901162306 | 84 | 170 | 0.0 | 1.0 | 0.00 | 0.00 | 0.00 | 58 | 1017.5 |
| 20260901161802 | 82 | 114 | 0.0 | 2.0 | 0.00 | 0.00 | 0.00 | 60 | 1017.4 |
| 20260901161256 | 83 | 202 | 1.0 | 3.0 | 0.00 | 0.00 | 0.00 | 58 | 1017.3 |
| 20260901160752 | 82 | 136 | 0.0 | 1.0 | 0.00 | 0.00 | 0.00 | 61 | 1017.5 |
| 20260901160248 | 81 | 103 | 0.0 | 2.0 | 0.00 | 0.00 | 0.00 | 63 | 1017.5 |
| 20260901155747 | 80 | 191 | 3.0 | 5.0 | 0.00 | 0.00 | 0.00 | 63 | 1017.7 |
| 20260901155242 | 80 | 153 | 1.0 | 1.0 | 0.00 | 0.00 | 0.00 | 65 | 1017.5 |
| 20260901154738 | 80 | 156 | 1.0 | 2.0 | 0.00 | 0.00 | 0.00 | 64 | 1017.6 |
| 20260901154232 | 79 | 241 | 3.0 | 5.0 | 0.00 | 0.00 | 0.00 | 64 | 1017.8 |
| 20260901153728 | 79 | 202 | 4.0 | 6.0 | 0.00 | 0.00 | 0.00 | 64 | 1017.8 |
| 20260901153227 | 79 | 117 | 3.0 | 3.0 | 0.00 | 0.00 | 0.00 | 64 | 1017.7 |
| 20260901152721 | 79 | 166 | 2.0 | 5.0 | 0.00 | 0.00 | 0.00 | 65 | 1017.8 |
| 20260901152220 | 78 | 32 | 1.0 | 2.0 | 0.00 | 0.00 | 0.00 | 65 | 1017.8 |
| 20260901151715 | 78 | 220 | 2.0 | 3.0 | 0.00 | 0.00 | 0.00 | 66 | 1017.9 |
| 20260901151215 | 78 | 137 | 1.0 | 3.0 | 0.00 | 0.00 | 0.00 | 67 | 1017.7 |
| 20260901150709 | 77 | 150 | 2.0 | 3.0 | 0.00 | 0.00 | 0.00 | 69 | 1017.8 |
| 20260901150207 | 77 | 119 | 0.0 | 3.0 | 0.00 | 0.00 | 0.00 | 73 | 1017.9 |
| 20260901145705 | 77 | 150 | 1.0 | 2.0 | 0.00 | 0.00 | 0.00 | 74 | 1017.9 |
| 20260901145200 | 76 | 197 | 2.0 | 3.0 | 0.00 | 0.00 | 0.00 | 73 | 1017.7 |
| 20260901144655 | 76 | 198 | 1.0 | 2.0 | 0.00 | 0.00 | 0.00 | 74 | 1018.0 |
| 20260901144150 | 75 | 168 | 2.0 | 3.0 | 0.00 | 0.00 | 0.00 | 75 | 1018.0 |
| 20260901143645 | 75 | 251 | 3.0 | 3.0 | 0.00 | 0.00 | 0.00 | 75 | 1017.9 |
| 20260901143142 | 75 | 288 | 1.0 | 5.0 | 0.00 | 0.00 | 0.00 | 75 | 1017.9 |
| 20260901142638 | 75 | 236 | 3.0 | 5.0 | 0.00 | 0.00 | 0.00 | 77 | 1018.0 |
| 20260901142137 | 75 | 168 | 3.0 | 5.0 | 0.00 | 0.00 | 0.00 | 77 | 1017.9 |
| 20260901141632 | 75 | 173 | 1.0 | 3.0 | 0.00 | 0.00 | 0.00 | 78 | 1018.1 |
| 20260901141131 | 75 | 159 | 1.0 | 2.0 | 0.00 | 0.00 | 0.00 | 80 | 1018.0 |
| 20260901140630 | 74 | 210 | 2.0 | 3.0 | 0.00 | 0.00 | 0.00 | 79 | 1018.1 |
| 20260901140129 | 74 | 107 | 0.0 | 3.0 | 0.00 | 0.00 | 0.00 | 80 | 1017.9 |
| 20260901135624 | 73 | 99 | 1.0 | 1.0 | 0.00 | 0.00 | 0.00 | 82 | 1018.0 |
| 20260901135119 | 73 | 116 | 1.0 | 2.0 | 0.00 | 0.00 | 0.00 | 83 | 1017.9 |
| 20260901134615 | 72 | 133 | 1.0 | 2.0 | 0.00 | 0.00 | 0.00 | 84 | 1018.1 |
| 20260901134110 | 72 | 130 | 0.0 | 2.0 | 0.00 | 0.00 | 0.00 | 85 | 1018.0 |
| 20260901133609 | 71 | 171 | 1.0 | 2.0 | 0.00 | 0.00 | 0.00 | 86 | 1018.0 |
| 20260901133108 | 71 | 214 | 0.0 | 2.0 | 0.00 | 0.00 | 0.00 | 88 | 1018.0 |
| 20260901132603 | 71 | 188 | 0.0 | 1.0 | 0.00 | 0.00 | 0.00 | 88 | 1017.9 |
| 20260901132057 | 71 | 222 | 1.0 | 2.0 | 0.00 | 0.00 | 0.00 | 87 | 1017.9 |
| 20260901131556 | 70 | 196 | 0.0 | 2.0 | 0.00 | 0.00 | 0.00 | 88 | 1018.0 |
| 20260901131051 | 69 | 233 | 3.0 | 3.0 | 0.00 | 0.00 | 0.00 | 90 | 1017.9 |
| 20260901130546 | 68 | 245 | 1.0 | 1.0 | 0.00 | 0.00 | 0.00 | 93 | 1017.8 |
| 20260901130044 | 68 | 198 | 0.0 | 0.0 | 0.00 | 0.00 | 0.00 | 94 | 1017.7 |
| 20260901125543 | 67 | 205 | 0.0 | 0.0 | 0.00 | 0.00 | 0.00 | 95 | 1017.9 |
| 20260901125039 | 67 | 218 | 0.0 | 0.0 | 0.00 | 0.00 | 0.00 | 95 | 1017.9 |
| 20260901124538 | 67 | 211 | 0.0 | 1.0 | 0.00 | 0.00 | 0.00 | 96 | 1017.9 |
| 20260901124033 | 67 | 204 | 0.0 | 0.0 | 0.00 | 0.00 | 0.00 | 96 | 1017.7 |
| 20260901123528 | 66 | 219 | 1.0 | 1.0 | 0.00 | 0.00 | 0.00 | 96 | 1017.8 |
| 20260901123028 | 66 | 188 | 0.0 | 1.0 | 0.00 | 0.00 | 0.00 | 97 | 1017.7 |
| 20260901122526 | 66 | 194 | 0.0 | 2.0 | 0.00 | 0.00 | 0.00 | 97 | 1017.6 |
| 20260901122025 | 66 | 197 | 0.0 | 1.0 | 0.00 | 0.00 | 0.00 | 97 | 1017.6 |
| 20260901121520 | 65 | 248 | 0.0 | 0.0 | 0.00 | 0.00 | 0.00 | 97 | 1017.7 |
| 20260901121016 | 66 | 204 | 0.0 | 1.0 | 0.00 | 0.00 | 0.00 | 97 | 1017.5 |
| 20260901120515 | 66 | 221 | 0.0 | 0.0 | 0.00 | 0.00 | 0.00 | 97 | 1017.6 |
| 20260901120011 | 65 | 194 | 0.0 | 0.0 | 0.00 | 0.00 | 0.00 | 97 | 1017.4 |
| 20260901115506 | 66 | 214 | 1.0 | 1.0 | 0.00 | 0.00 | 0.00 | 97 | 1017.5 |
| 20260901115003 | 65 | 230 | 0.0 | 1.0 | 0.00 | 0.00 | 0.00 | 97 | 1017.4 |
| 20260901114459 | 65 | 244 | 1.0 | 1.0 | 0.00 | 0.00 | 0.00 | 97 | 1017.3 |
| 20260901113956 | 65 | 226 | 0.0 | 0.0 | 0.00 | 0.00 | 0.00 | 97 | 1017.3 |
| 20260901113456 | 65 | 214 | 0.0 | 0.0 | 0.00 | 0.00 | 0.00 | 96 | 1017.1 |
| 20260901112951 | 65 | 213 | 0.0 | 0.0 | 0.00 | 0.00 | 0.00 | 96 | 1016.9 |
| 20260901112446 | 65 | 264 | 0.0 | 1.0 | 0.00 | 0.00 | 0.00 | 96 | 1016.9 |
| 20260901111941 | 65 | 192 | 0.0 | 0.0 | 0.00 | 0.00 | 0.00 | 96 | 1016.9 |
| 20260901111440 | 66 | 170 | 1.0 | 1.0 | 0.00 | 0.00 | 0.00 | 96 | 1017.0 |
| 20260901110938 | 66 | 212 | 0.0 | 0.0 | 0.00 | 0.00 | 0.00 | 96 | 1016.6 |
| 20260901110434 | 66 | 206 | 0.0 | 0.0 | 0.00 | 0.00 | 0.00 | 97 | 1016.8 |
| 20260901105931 | 65 | 208 | 0.0 | 0.0 | 0.00 | 0.00 | 0.00 | 97 | 1016.6 |
| 20260901105426 | 65 | 197 | 0.0 | 0.0 | 0.00 | 0.00 | 0.00 | 97 | 1016.4 |
| 20260901104921 | 65 | 196 | 0.0 | 0.0 | 0.00 | 0.00 | 0.00 | 97 | 1016.6 |
| 20260901104416 | 65 | 212 | 0.0 | 0.0 | 0.00 | 0.00 | 0.00 | 96 | 1016.5 |
| 20260901103912 | 65 | 219 | 0.0 | 0.0 | 0.00 | 0.00 | 0.00 | 96 | 1016.4 |
| 20260901103412 | 66 | 227 | 0.0 | 0.0 | 0.00 | 0.00 | 0.00 | 96 | 1016.4 |
| 20260901102907 | 66 | 236 | 0.0 | 0.0 | 0.00 | 0.00 | 0.00 | 96 | 1016.4 |
| 20260901102401 | 66 | 250 | 0.0 | 0.0 | 0.00 | 0.00 | 0.00 | 96 | 1016.5 |
| 20260901101857 | 66 | 210 | 0.0 | 0.0 | 0.00 | 0.00 | 0.00 | 96 | 1016.7 |
| 20260901101357 | 66 | 222 | 0.0 | 0.0 | 0.00 | 0.00 | 0.00 | 97 | 1016.6 |
| 20260901100856 | 66 | 223 | 0.0 | 0.0 | 0.00 | 0.00 | 0.00 | 97 | 1016.7 |
| 20260901100351 | 66 | 221 | 0.0 | 0.0 | 0.00 | 0.00 | 0.00 | 97 | 1016.7 |
| 20260901095845 | 66 | 215 | 0.0 | 0.0 | 0.00 | 0.00 | 0.00 | 97 | 1016.5 |
| 20260901095342 | 66 | 188 | 0.0 | 0.0 | 0.00 | 0.00 | 0.00 | 97 | 1016.5 |
| 20260901094836 | 66 | 206 | 0.0 | 0.0 | 0.00 | 0.00 | 0.00 | 97 | 1016.4 |
| 20260901094331 | 66 | 231 | 0.0 | 0.0 | 0.00 | 0.00 | 0.00 | 97 | 1016.6 |
| 20260901093826 | 66 | 238 | 0.0 | 0.0 | 0.00 | 0.00 | 0.00 | 97 | 1016.5 |
| 20260901093325 | 65 | 252 | 0.0 | 0.0 | 0.00 | 0.00 | 0.00 | 97 | 1016.6 |
| 20260901092821 | 65 | 254 | 0.0 | 0.0 | 0.00 | 0.00 | 0.00 | 96 | 1016.4 |
| 20260901092317 | 65 | 279 | 0.0 | 0.0 | 0.00 | 0.00 | 0.00 | 96 | 1016.2 |
| 20260901091813 | 66 | 247 | 0.0 | 0.0 | 0.00 | 0.00 | 0.00 | 96 | 1016.5 |
| 20260901091312 | 66 | 248 | 0.0 | 0.0 | 0.00 | 0.00 | 0.00 | 96 | 1016.2 |
| 20260901090808 | 66 | 235 | 0.0 | 0.0 | 0.00 | 0.00 | 0.00 | 96 | 1016.3 |
| 20260901090303 | 66 | 234 | 0.0 | 0.0 | 0.00 | 0.00 | 0.00 | 95 | 1016.6 |
| 20260901085759 | 66 | 246 | 0.0 | 0.0 | 0.00 | 0.00 | 0.00 | 95 | 1016.5 |
| 20260901085253 | 66 | 247 | 0.0 | 0.0 | 0.00 | 0.00 | 0.00 | 95 | 1016.5 |
| 20260901084750 | 66 | 247 | 0.0 | 0.0 | 0.00 | 0.00 | 0.00 | 95 | 1016.2 |
| 20260901084246 | 66 | 247 | 0.0 | 0.0 | 0.00 | 0.00 | 0.00 | 94 | 1016.4 |
| 20260901083746 | 66 | 247 | 0.0 | 0.0 | 0.00 | 0.00 | 0.00 | 94 | 1016.7 |
| 20260901083245 | 66 | 248 | 0.0 | 0.0 | 0.00 | 0.00 | 0.00 | 94 | 1016.4 |
| 20260901082744 | 67 | 254 | 0.0 | 0.0 | 0.00 | 0.00 | 0.00 | 94 | 1016.5 |
| 20260901082239 | 66 | 248 | 0.0 | 0.0 | 0.00 | 0.00 | 0.00 | 94 | 1016.4 |
| 20260901081735 | 67 | 245 | 0.0 | 0.0 | 0.00 | 0.00 | 0.00 | 94 | 1016.5 |
| 20260901081234 | 67 | 245 | 0.0 | 0.0 | 0.00 | 0.00 | 0.00 | 93 | 1016.4 |
| 20260901080730 | 67 | 246 | 0.0 | 0.0 | 0.00 | 0.00 | 0.00 | 93 | 1016.2 |
| 20260901080228 | 67 | 288 | 0.0 | 0.0 | 0.00 | 0.00 | 0.00 | 93 | 1016.5 |
| 20260901075723 | 67 | 242 | 0.0 | 0.0 | 0.00 | 0.00 | 0.00 | 93 | 1016.7 |
| 20260901075218 | 67 | 219 | 0.0 | 0.0 | 0.00 | 0.00 | 0.00 | 93 | 1016.6 |
| 20260901074712 | 67 | 228 | 0.0 | 0.0 | 0.00 | 0.00 | 0.00 | 92 | 1016.6 |
| 20260901074208 | 67 | 225 | 0.0 | 0.0 | 0.00 | 0.00 | 0.00 | 92 | 1016.5 |
| 20260901073704 | 68 | 228 | 0.0 | 0.0 | 0.00 | 0.00 | 0.00 | 92 | 1016.7 |
| 20260901073159 | 68 | 235 | 0.0 | 0.0 | 0.00 | 0.00 | 0.00 | 92 | 1016.8 |
| 20260901072654 | 68 | 239 | 0.0 | 0.0 | 0.00 | 0.00 | 0.00 | 92 | 1016.8 |
| 20260901072149 | 68 | 210 | 0.0 | 0.0 | 0.00 | 0.00 | 0.00 | 91 | 1016.8 |
| 20260901071648 | 67 | 208 | 0.0 | 0.0 | 0.00 | 0.00 | 0.00 | 91 | 1016.8 |
| 20260901071143 | 68 | 208 | 0.0 | 0.0 | 0.00 | 0.00 | 0.00 | 91 | 1016.7 |
| 20260901070637 | 68 | 215 | 0.0 | 0.0 | 0.00 | 0.00 | 0.00 | 91 | 1016.7 |
| 20260901070133 | 68 | 246 | 0.0 | 0.0 | 0.00 | 0.00 | 0.00 | 90 | 1016.7 |
| 20260901065632 | 68 | 248 | 0.0 | 0.0 | 0.00 | 0.00 | 0.00 | 91 | 1016.7 |
| 20260901065127 | 68 | 219 | 0.0 | 0.0 | 0.00 | 0.00 | 0.00 | 90 | 1016.8 |
| 20260901064624 | 68 | 219 | 0.0 | 0.0 | 0.00 | 0.00 | 0.00 | 90 | 1017.0 |
| 20260901064120 | 68 | 218 | 0.0 | 0.0 | 0.00 | 0.00 | 0.00 | 90 | 1016.9 |
| 20260901063616 | 68 | 218 | 0.0 | 0.0 | 0.00 | 0.00 | 0.00 | 89 | 1017.1 |
| 20260901063112 | 69 | 219 | 0.0 | 0.0 | 0.00 | 0.00 | 0.00 | 89 | 1017.1 |
| 20260901062608 | 69 | 203 | 0.0 | 0.0 | 0.00 | 0.00 | 0.00 | 88 | 1017.1 |
| 20260901062103 | 69 | 209 | 0.0 | 0.0 | 0.00 | 0.00 | 0.00 | 87 | 1017.2 |
| 20260901061600 | 69 | 209 | 0.0 | 0.0 | 0.00 | 0.00 | 0.00 | 86 | 1017.0 |
| 20260901061054 | 70 | 210 | 0.0 | 0.0 | 0.00 | 0.00 | 0.00 | 85 | 1017.0 |
| 20260901060549 | 71 | 217 | 0.0 | 0.0 | 0.00 | 0.00 | 0.00 | 84 | 1016.8 |
| 20260901060044 | 71 | 202 | 0.0 | 0.0 | 0.00 | 0.00 | 0.00 | 84 | 1016.9 |
| 20260901055539 | 71 | 195 | 0.0 | 0.0 | 0.00 | 0.00 | 0.00 | 84 | 1017.0 |
| 20260901055036 | 71 | 211 | 0.0 | 0.0 | 0.00 | 0.00 | 0.00 | 83 | 1016.7 |
| 20260901054533 | 71 | 202 | 0.0 | 0.0 | 0.00 | 0.00 | 0.00 | 83 | 1016.8 |
| 20260901054029 | 72 | 208 | 0.0 | 0.0 | 0.00 | 0.00 | 0.00 | 81 | 1016.7 |
| 20260901053525 | 72 | 219 | 1.0 | 1.0 | 0.00 | 0.00 | 0.00 | 81 | 1016.8 |
| 20260901053020 | 73 | 200 | 0.0 | 1.0 | 0.00 | 0.00 | 0.00 | 80 | 1016.4 |
| 20260901052520 | 73 | 218 | 1.0 | 2.0 | 0.00 | 0.00 | 0.00 | 80 | 1016.6 |
| 20260901052020 | 73 | 222 | 0.0 | 2.0 | 0.00 | 0.00 | 0.00 | 80 | 1016.5 |
| 20260901051515 | 73 | 223 | 0.0 | 1.0 | 0.00 | 0.00 | 0.00 | 80 | 1016.3 |
| 20260901051014 | 73 | 201 | 0.0 | 1.0 | 0.00 | 0.00 | 0.00 | 80 | 1016.3 |
| 20260901050509 | 73 | 208 | 0.0 | 1.0 | 0.00 | 0.00 | 0.00 | 80 | 1016.3 |
| 20260901050004 | 72 | 227 | 0.0 | 2.0 | 0.00 | 0.00 | 0.00 | 81 | 1016.1 |
| 20260901045459 | 71 | 267 | 0.0 | 0.0 | 0.00 | 0.00 | 0.00 | 83 | 1016.1 |
| 20260901044954 | 71 | 278 | 0.0 | 0.0 | 0.00 | 0.00 | 0.00 | 83 | 1016.2 |
| 20260901044450 | 70 | 273 | 0.0 | 0.0 | 0.00 | 0.00 | 0.00 | 84 | 1016.2 |
| 20260901043946 | 71 | 273 | 0.0 | 0.0 | 0.00 | 0.00 | 0.00 | 83 | 1016.0 |
| 20260901043442 | 70 | 299 | 1.0 | 1.0 | 0.00 | 0.00 | 0.00 | 84 | 1016.1 |
| 20260901042941 | 70 | 148 | 0.0 | 0.0 | 0.00 | 0.00 | 0.00 | 84 | 1016.1 |
| 20260901042436 | 70 | 207 | 0.0 | 0.0 | 0.00 | 0.00 | 0.00 | 83 | 1016.0 |
| 20260901041931 | 71 | 207 | 0.0 | 0.0 | 0.00 | 0.00 | 0.00 | 82 | 1016.1 |
| 20260901041426 | 71 | 208 | 0.0 | 0.0 | 0.00 | 0.00 | 0.00 | 82 | 1016.0 |
| 20260901040925 | 71 | 209 | 0.0 | 0.0 | 0.00 | 0.00 | 0.00 | 81 | 1016.1 |
| 20260901040420 | 71 | 201 | 0.0 | 0.0 | 0.00 | 0.00 | 0.00 | 80 | 1016.3 |